Regional Weather Roundup
Issued by NWS

Home | Current Version | Previous Version | Graphics & Text | Print | Product List | Glossary On
Versions: 1 2 3 4 5 6 7 8 9 10 11 12 13 14 15 16 17 18 19 20 21 22 23 24 25 26 27 28 29 30 31 32 33 34 35 36 37 38 39 40 41 42 43 44 45 46 47 48 49 50
000
ASUS43 KBIS 011420
RWRND

NORTH DAKOTA REGIONAL WEATHER ROUNDUP
NATIONAL WEATHER SERVICE BISMARCK ND
900 AM CDT MON SEP 01 2014

NOTE: "FAIR" INDICATES FEW OR NO CLOUDS BELOW 12,000 FEET WITH NO
SIGNIFICANT WEATHER AND/OR OBSTRUCTIONS TO VISIBILITY.


NDZ001>003-009>011-017-011500-
NORTHWEST NORTH DAKOTA

CITY           SKY/WX    TMP DP  RH WIND       PRES   REMARKS
WILLISTON      SUNNY     53  49  86 SW5       29.84R
MINOT          MOSUNNY   57  50  77 NW13      29.77R
MINOT AFB      MOSUNNY   55  54  95 NW15      29.76R
$$

NDZ018>021-031>035-040>046-011500-
SOUTHWEST NORTH DAKOTA

CITY           SKY/WX    TMP DP  RH WIND       PRES   REMARKS
BISMARCK       SUNNY     58  52  80 W8        29.80R
DICKINSON      MOSUNNY   55  49  80 W13       29.83R
GARRISON         N/A     56  53  90 NW10      29.79R
HETTINGER ARPT SUNNY     54  48  80 W13       29.85S
$$

NDZ004>008-012>016-024-026-027-054-011500-
NORTHEAST NORTH DAKOTA

CITY           SKY/WX    TMP DP  RH WIND       PRES   REMARKS
GRAND FORKS    MOSUNNY   61  56  83 CALM      29.70R
GRND FRKS AFB  SUNNY     62  60  95 NW6       29.70S
DEVILS LAKE    SUNNY     59  50  72 W7        29.71S
$$

NDZ022-023-025-028>030-036>039-047>053-011500-
SOUTHEAST NORTH DAKOTA

CITY           SKY/WX    TMP DP  RH WIND       PRES   REMARKS
FARGO          SUNNY     60  56  86 W3        29.71S
JAMESTOWN      SUNNY     61  56  83 W7        29.75S
$$




USA.gov is the U.S. government's official web portal to all federal, state and local government web resources and services.